Terminal Aerodrome Forecast
Issued by NWS Northern Indiana

Home | Current Version | Previous Version | Text Only | Print | Product List | Glossary Off
Versions: 1 2 3 4 5 6 7 8 9 10 11 12 13

000
FTUS43 KIWX 100500
TAFFWA
TAF
KFWA 100520Z 1006/1106 36005KT P6SM SCT090
     FM101500 04006KT P6SM FEW050=

USA.gov is the U.S. government's official web portal to all federal, state and local government web resources and services.